| time (UTC) | temp F | wind direction | speed MPH | gust MPH | rain 1hr in | rain 24hr in | rain mn in | humidity % | barometer mb |
| 20260901044012 | 75 | 172 | 0.0 | 2.0 | 0.00 | 0.00 | 0.00 | 90 | 1017.4 |
| 20260901043510 | 75 | 172 | 0.0 | 3.0 | 0.00 | 0.00 | 0.00 | 90 | 1017.4 |
| 20260901043027 | 75 | 285 | 0.0 | 3.0 | 0.00 | 0.00 | 0.00 | 90 | 1017.6 |
| 20260901042513 | 75 | 223 | 1.0 | 4.0 | 0.00 | 0.00 | 0.00 | 90 | 1017.5 |
| 20260901042013 | 76 | 164 | 2.0 | 4.0 | 0.00 | 0.00 | 0.00 | 89 | 1017.5 |
| 20260901041536 | 76 | 205 | 2.0 | 4.0 | 0.00 | 0.00 | 0.00 | 89 | 1017.5 |
| 20260901041015 | 76 | 181 | 1.0 | 4.0 | 0.00 | 0.00 | 0.00 | 89 | 1017.5 |
| 20260901040518 | 76 | 203 | 1.0 | 4.0 | 0.00 | 0.00 | 0.00 | 89 | 1017.4 |
| 20260901040036 | 76 | 166 | 1.0 | 4.0 | 0.00 | 0.00 | 0.00 | 88 | 1017.5 |
| 20260901035504 | 76 | 209 | 2.0 | 4.0 | 0.00 | 0.00 | 0.00 | 88 | 1017.4 |
| 20260901035005 | 76 | 226 | 0.0 | 6.0 | 0.00 | 0.00 | 0.00 | 88 | 1017.6 |
| 20260901034516 | 76 | 232 | 1.0 | 6.0 | 0.00 | 0.00 | 0.00 | 88 | 1017.3 |
| 20260901034008 | 76 | 141 | 3.0 | 6.0 | 0.00 | 0.00 | 0.00 | 87 | 1017.3 |
| 20260901033512 | 76 | 166 | 2.0 | 6.0 | 0.00 | 0.00 | 0.00 | 87 | 1017.3 |
| 20260901033025 | 76 | 178 | 1.0 | 6.0 | 0.00 | 0.00 | 0.00 | 87 | 1017.2 |
| 20260901032514 | 76 | 138 | 3.0 | 6.0 | 0.00 | 0.00 | 0.00 | 87 | 1017.3 |
| 20260901032014 | 76 | 153 | 1.0 | 6.0 | 0.00 | 0.00 | 0.00 | 87 | 1017.4 |
| 20260901031530 | 76 | 138 | 2.0 | 6.0 | 0.00 | 0.00 | 0.00 | 87 | 1017.3 |
| 20260901031013 | 76 | 162 | 2.0 | 6.0 | 0.00 | 0.00 | 0.00 | 87 | 1017.4 |
| 20260901030515 | 76 | 167 | 2.0 | 7.0 | 0.00 | 0.00 | 0.00 | 87 | 1017.5 |
| 20260901030032 | 76 | 164 | 1.0 | 7.0 | 0.00 | 0.00 | 0.00 | 88 | 1017.6 |
| 20260901025520 | 76 | 139 | 3.0 | 7.0 | 0.00 | 0.00 | 0.00 | 88 | 1017.6 |
| 20260901025017 | 76 | 145 | 1.0 | 5.0 | 0.00 | 0.00 | 0.00 | 89 | 1017.6 |
| 20260901024533 | 76 | 195 | 2.0 | 4.0 | 0.00 | 0.00 | 0.00 | 90 | 1017.8 |
| 20260901024007 | 75 | 179 | 0.0 | 2.0 | 0.00 | 0.00 | 0.00 | 90 | 1017.9 |
| 20260901023511 | 75 | 185 | 1.0 | 2.0 | 0.00 | 0.00 | 0.00 | 91 | 1018.1 |
| 20260901023024 | 75 | 149 | 1.0 | 2.0 | 0.00 | 0.00 | 0.00 | 93 | 1018.2 |
| 20260901022509 | 74 | 98 | 1.0 | 2.0 | 0.00 | 0.00 | 0.00 | 94 | 1018.2 |
| 20260901022014 | 74 | 144 | 0.0 | 2.0 | 0.00 | 0.00 | 0.00 | 94 | 1018.1 |
| 20260901021534 | 74 | 143 | 0.0 | 2.0 | 0.00 | 0.00 | 0.00 | 95 | 1018.2 |
| 20260901021013 | 74 | 143 | 0.0 | 2.0 | 0.00 | 0.00 | 0.00 | 95 | 1018.3 |
| 20260901020512 | 74 | 143 | 0.0 | 2.0 | 0.00 | 0.00 | 0.00 | 95 | 1018.4 |
| 20260901020033 | 74 | 143 | 0.0 | 2.0 | 0.00 | 0.00 | 0.00 | 95 | 1018.4 |
| 20260901015516 | 74 | 143 | 0.0 | 2.0 | 0.00 | 0.00 | 0.00 | 94 | 1018.3 |
| 20260901015017 | 74 | 143 | 0.0 | 2.0 | 0.00 | 0.00 | 0.00 | 94 | 1018.5 |
| 20260901014532 | 74 | 143 | 0.0 | 2.0 | 0.00 | 0.00 | 0.00 | 94 | 1018.6 |
| 20260901014018 | 74 | 143 | 0.0 | 2.0 | 0.00 | 0.00 | 0.00 | 94 | 1018.6 |
| 20260901013517 | 74 | 143 | 0.0 | 2.0 | 0.00 | 0.00 | 0.00 | 94 | 1018.6 |
| 20260901013017 | 74 | 143 | 0.0 | 1.0 | 0.00 | 0.00 | 0.00 | 94 | 1018.7 |
| 20260901012510 | 74 | 143 | 0.0 | 0.0 | 0.00 | 0.00 | 0.00 | 94 | 1018.9 |
| 20260901012012 | 74 | 143 | 0.0 | 1.0 | 0.00 | 0.00 | 0.00 | 94 | 1018.9 |
| 20260901011535 | 74 | 143 | 0.0 | 1.0 | 0.00 | 0.00 | 0.00 | 93 | 1018.8 |
| 20260901011017 | 75 | 143 | 0.0 | 0.0 | 0.00 | 0.00 | 0.00 | 92 | 1018.8 |
| 20260901010516 | 75 | 143 | 0.0 | 0.0 | 0.00 | 0.00 | 0.00 | 92 | 1018.6 |
| 20260901010043 | 75 | 143 | 0.0 | 0.0 | 0.00 | 0.00 | 0.00 | 92 | 1018.5 |
| 20260901005519 | 75 | 143 | 0.0 | 1.0 | 0.00 | 0.00 | 0.00 | 92 | 1018.5 |
| 20260901005016 | 75 | 143 | 0.0 | 1.0 | 0.00 | 0.00 | 0.00 | 92 | 1018.4 |
| 20260901004536 | 76 | 143 | 0.0 | 0.0 | 0.00 | 0.00 | 0.00 | 91 | 1018.3 |
| 20260901004016 | 76 | 143 | 0.0 | 0.0 | 0.00 | 0.00 | 0.00 | 91 | 1018.2 |
| 20260901003518 | 77 | 143 | 0.0 | 0.0 | 0.00 | 0.00 | 0.00 | 90 | 1018.1 |
| 20260901003037 | 77 | 143 | 0.0 | 0.0 | 0.00 | 0.00 | 0.00 | 90 | 1017.9 |
| 20260901002518 | 77 | 143 | 0.0 | 0.0 | 0.00 | 0.00 | 0.00 | 89 | 1017.9 |
| 20260901002015 | 78 | 143 | 0.0 | 0.0 | 0.00 | 0.00 | 0.00 | 89 | 1017.9 |
| 20260901001528 | 78 | 143 | 0.0 | 0.0 | 0.00 | 0.00 | 0.00 | 88 | 1018.0 |
| 20260901001009 | 78 | 143 | 0.0 | 0.0 | 0.00 | 0.00 | 0.00 | 88 | 1018.1 |
| 20260901000513 | 79 | 143 | 0.0 | 0.0 | 0.00 | 0.00 | 0.00 | 87 | 1018.2 |
| 20260901000027 | 79 | 143 | 0.0 | 0.0 | 0.00 | 0.00 | 0.00 | 86 | 1018.0 |
| 20260831235516 | 79 | 143 | 0.0 | 0.0 | 0.00 | 0.00 | 0.00 | 86 | 1018.2 |
| 20260831235016 | 80 | 143 | 0.0 | 0.0 | 0.00 | 0.00 | 0.00 | 86 | 1018.0 |
| 20260831234532 | 80 | 143 | 0.0 | 0.0 | 0.00 | 0.00 | 0.00 | 1018.2 | |
| 20260831234017 | 81 | 143 | 0.0 | 2.0 | 0.00 | 0.00 | 0.00 | 82 | 1018.0 |
| 20260831233513 | 81 | 143 | 0.0 | 2.0 | 0.00 | 0.00 | 0.00 | 82 | 1018.0 |
| 20260831233042 | 82 | 143 | 0.0 | 0.0 | 0.00 | 0.00 | 0.00 | 82 | 1018.0 |
| 20260831232517 | 82 | 143 | 0.0 | 2.0 | 0.00 | 0.00 | 0.00 | 82 | 1017.9 |
| 20260831232021 | 82 | 143 | 0.0 | 2.0 | 0.00 | 0.00 | 0.00 | 82 | 1017.8 |
| 20260831231537 | 82 | 143 | 0.0 | 2.0 | 0.00 | 0.00 | 0.00 | 80 | 1017.8 |
| 20260831231019 | 83 | 143 | 0.0 | 2.0 | 0.00 | 0.00 | 0.00 | 79 | 1017.9 |
| 20260831230514 | 83 | 143 | 0.0 | 2.0 | 0.00 | 0.00 | 0.00 | 79 | 1017.8 |
| 20260831230030 | 83 | 143 | 1.0 | 2.0 | 0.00 | 0.00 | 0.00 | 77 | 1017.9 |
| 20260831225514 | 83 | 143 | 0.0 | 1.0 | 0.00 | 0.00 | 0.00 | 78 | 1017.9 |
| 20260831225020 | 83 | 143 | 0.0 | 2.0 | 0.00 | 0.00 | 0.00 | 78 | 1017.9 |
| 20260831224530 | 82 | 175 | 0.0 | 2.0 | 0.00 | 0.00 | 0.00 | 79 | 1017.9 |
| 20260831224001 | 82 | 175 | 1.0 | 2.0 | 0.00 | 0.00 | 0.00 | 79 | 1017.9 |
| 20260831223507 | 82 | 234 | 0.0 | 2.0 | 0.00 | 0.00 | 0.00 | 82 | 1018.0 |
| 20260831223012 | 82 | 234 | 0.0 | 2.0 | 0.00 | 0.00 | 0.00 | 81 | 1017.9 |
| 20260831222508 | 83 | 234 | 0.0 | 2.0 | 0.00 | 0.00 | 0.00 | 81 | 1017.8 |
| 20260831222012 | 83 | 234 | 0.0 | 2.0 | 0.00 | 0.00 | 0.00 | 79 | 1017.9 |
| 20260831221516 | 82 | 185 | 0.0 | 2.0 | 0.00 | 0.00 | 0.00 | 79 | 1018.0 |
| 20260831221010 | 82 | 185 | 0.0 | 2.0 | 0.00 | 0.00 | 0.00 | 80 | 1017.7 |
| 20260831220502 | 82 | 142 | 0.0 | 2.0 | 0.00 | 0.00 | 0.00 | 81 | 1017.7 |
| 20260831220004 | 83 | 165 | 0.0 | 2.0 | 0.00 | 0.00 | 0.00 | 81 | 1017.7 |
| 20260831215502 | 83 | 165 | 1.0 | 2.0 | 0.00 | 0.00 | 0.00 | 79 | 1017.6 |
| 20260831215001 | 83 | 161 | 0.0 | 2.0 | 0.00 | 0.00 | 0.00 | 78 | 1017.6 |
| 20260831214506 | 83 | 161 | 0.0 | 3.0 | 0.00 | 0.00 | 0.00 | 78 | 1017.6 |
| 20260831214002 | 83 | 105 | 0.0 | 3.0 | 0.00 | 0.00 | 0.00 | 79 | 1017.6 |
| 20260831213507 | 83 | 167 | 1.0 | 3.0 | 0.00 | 0.00 | 0.00 | 76 | 1017.6 |
| 20260831213015 | 83 | 144 | 1.0 | 2.0 | 0.00 | 0.00 | 0.00 | 76 | 1017.7 |
| 20260831212507 | 83 | 155 | 0.0 | 2.0 | 0.00 | 0.00 | 0.00 | 77 | 1017.7 |
| 20260831212007 | 83 | 142 | 1.0 | 4.0 | 0.00 | 0.00 | 0.00 | 76 | 1017.6 |
| 20260831211517 | 84 | 141 | 1.0 | 4.0 | 0.00 | 0.00 | 0.00 | 74 | 1017.6 |
| 20260831211010 | 84 | 200 | 1.0 | 4.0 | 0.00 | 0.00 | 0.00 | 73 | 1017.6 |
| 20260831210510 | 84 | 207 | 2.0 | 5.0 | 0.00 | 0.00 | 0.00 | 72 | 1017.7 |
| 20260831210024 | 84 | 167 | 2.0 | 5.0 | 0.00 | 0.00 | 0.00 | 72 | 1017.7 |
| 20260831205501 | 84 | 174 | 2.0 | 5.0 | 0.00 | 0.00 | 0.00 | 72 | 1017.8 |
| 20260831205003 | 84 | 188 | 2.0 | 7.0 | 0.00 | 0.00 | 0.00 | 73 | 1018.0 |
| 20260831204506 | 84 | 140 | 3.0 | 7.0 | 0.00 | 0.00 | 0.00 | 72 | 1018.0 |
| 20260831204003 | 84 | 193 | 2.0 | 7.0 | 0.00 | 0.00 | 0.00 | 73 | 1017.9 |
| 20260831203502 | 84 | 194 | 2.0 | 5.0 | 0.00 | 0.00 | 0.00 | 74 | 1018.0 |
| 20260831203009 | 84 | 165 | 2.0 | 5.0 | 0.00 | 0.00 | 0.00 | 74 | 1018.0 |
| 20260831202505 | 84 | 199 | 1.0 | 4.0 | 0.00 | 0.00 | 0.00 | 73 | 1018.0 |
| 20260831202004 | 84 | 124 | 1.0 | 4.0 | 0.00 | 0.00 | 0.00 | 73 | 1018.3 |
| 20260831201522 | 84 | 182 | 1.0 | 5.0 | 0.00 | 0.00 | 0.00 | 73 | 1018.5 |
| 20260831201008 | 84 | 246 | 0.0 | 5.0 | 0.00 | 0.00 | 0.00 | 74 | 1018.5 |
| 20260831200510 | 84 | 191 | 2.0 | 5.0 | 0.00 | 0.00 | 0.00 | 72 | 1018.6 |
| 20260831200018 | 84 | 191 | 2.0 | 5.0 | 0.00 | 0.00 | 0.00 | 72 | 1018.6 |
| 20260831195512 | 84 | 141 | 1.0 | 4.0 | 0.00 | 0.00 | 0.00 | 73 | 1018.7 |
| 20260831195012 | 84 | 202 | 1.0 | 4.0 | 0.00 | 0.00 | 0.00 | 74 | 1018.7 |
| 20260831194503 | 84 | 184 | 1.0 | 5.0 | 0.00 | 0.00 | 0.00 | 73 | 1018.8 |
| 20260831194003 | 84 | 250 | 1.0 | 7.0 | 0.00 | 0.00 | 0.00 | 74 | 1018.8 |
| 20260831193504 | 84 | 172 | 1.0 | 7.0 | 0.00 | 0.00 | 0.00 | 73 | 1018.8 |
| 20260831193008 | 84 | 187 | 1.0 | 4.0 | 0.00 | 0.00 | 0.00 | 73 | 1018.7 |
| 20260831192504 | 84 | 184 | 1.0 | 5.0 | 0.00 | 0.00 | 0.00 | 72 | 1018.8 |
| 20260831192004 | 84 | 189 | 1.0 | 5.0 | 0.00 | 0.00 | 0.00 | 72 | 1018.9 |
| 20260831191511 | 84 | 196 | 1.0 | 5.0 | 0.00 | 0.00 | 0.00 | 73 | 1019.0 |
| 20260831191007 | 84 | 191 | 1.0 | 5.0 | 0.00 | 0.00 | 0.00 | 73 | 1019.1 |
| 20260831190508 | 84 | 182 | 2.0 | 5.0 | 0.00 | 0.00 | 0.00 | 73 | 1019.1 |
| 20260831190020 | 84 | 224 | 1.0 | 5.0 | 0.00 | 0.00 | 0.00 | 72 | 1019.1 |
| 20260831185511 | 84 | 155 | 1.0 | 9.0 | 0.00 | 0.00 | 0.00 | 71 | 1019.1 |
| 20260831185010 | 85 | 163 | 3.0 | 9.0 | 0.00 | 0.00 | 0.00 | 70 | 1019.1 |
| 20260831184526 | 85 | 153 | 2.0 | 9.0 | 0.00 | 0.00 | 0.00 | 71 | 1019.2 |
| 20260831184014 | 85 | 170 | 3.0 | 9.0 | 0.00 | 0.00 | 0.00 | 70 | 1019.4 |
| 20260831183503 | 85 | 22 | 2.0 | 8.0 | 0.00 | 0.00 | 0.00 | 69 | 1019.4 |
| 20260831183004 | 85 | 252 | 2.0 | 9.0 | 0.00 | 0.00 | 0.00 | 69 | 1019.5 |
| 20260831182507 | 86 | 281 | 2.0 | 9.0 | 0.00 | 0.00 | 0.00 | 69 | 1019.7 |
| 20260831182006 | 86 | 296 | 2.0 | 7.0 | 0.00 | 0.00 | 0.00 | 71 | 1019.7 |
| 20260831181508 | 86 | 168 | 2.0 | 7.0 | 0.00 | 0.00 | 0.00 | 70 | 1019.7 |
| 20260831181004 | 86 | 186 | 2.0 | 7.0 | 0.00 | 0.00 | 0.00 | 68 | 1019.7 |
| 20260831180507 | 86 | 300 | 3.0 | 10.0 | 0.00 | 0.00 | 0.00 | 67 | 1019.7 |
| 20260831180020 | 87 | 273 | 3.0 | 10.0 | 0.00 | 0.00 | 0.00 | 68 | 1019.7 |
| 20260831175508 | 87 | 298 | 3.0 | 8.0 | 0.00 | 0.00 | 0.00 | 68 | 1019.7 |
| 20260831175010 | 87 | 150 | 2.0 | 9.0 | 0.00 | 0.00 | 0.00 | 69 | 1019.7 |
| 20260831174523 | 87 | 317 | 3.0 | 9.0 | 0.00 | 0.00 | 0.00 | 68 | 1019.8 |
| 20260831174012 | 87 | 266 | 3.0 | 6.0 | 0.00 | 0.00 | 0.00 | 71 | 1019.8 |
| 20260831173515 | 86 | 174 | 2.0 | 9.0 | 0.00 | 0.00 | 0.00 | 70 | 1019.8 |
| 20260831173026 | 86 | 293 | 3.0 | 9.0 | 0.00 | 0.00 | 0.00 | 69 | 1019.8 |
| 20260831172515 | 86 | 275 | 3.0 | 8.0 | 0.00 | 0.00 | 0.00 | 69 | 1019.9 |
| 20260831172003 | 86 | 221 | 2.0 | 8.0 | 0.00 | 0.00 | 0.00 | 69 | 1019.8 |
| 20260831171514 | 86 | 196 | 2.0 | 8.0 | 0.00 | 0.00 | 0.00 | 70 | 1019.8 |
| 20260831171006 | 86 | 306 | 5.0 | 10.0 | 0.00 | 0.00 | 0.00 | 67 | 1019.8 |
| 20260831170505 | 87 | 276 | 3.0 | 10.0 | 0.00 | 0.00 | 0.00 | 67 | 1019.8 |
| 20260831170027 | 87 | 283 | 3.0 | 9.0 | 0.00 | 0.00 | 0.00 | 67 | 1019.9 |
| 20260831165509 | 86 | 40 | 2.0 | 10.0 | 0.00 | 0.00 | 0.00 | 67 | 1019.9 |
| 20260831165008 | 86 | 190 | 5.0 | 10.0 | 0.00 | 0.00 | 0.00 | 68 | 1019.9 |
| 20260831164522 | 86 | 299 | 3.0 | 8.0 | 0.00 | 0.00 | 0.00 | 70 | 1019.9 |
| 20260831164014 | 85 | 329 | 1.0 | 10.0 | 0.00 | 0.00 | 0.00 | 69 | 1019.9 |
| 20260831163512 | 85 | 283 | 3.0 | 10.0 | 0.00 | 0.00 | 0.00 | 66 | 1020.0 |
| 20260831163026 | 85 | 267 | 2.0 | 10.0 | 0.00 | 0.00 | 0.00 | 67 | 1020.0 |
| 20260831162516 | 86 | 242 | 3.0 | 5.0 | 0.00 | 0.00 | 0.00 | 65 | 1020.0 |
| 20260831162014 | 86 | 242 | 1.0 | 8.0 | 0.00 | 0.00 | 0.00 | 67 | 1020.0 |
| 20260831161533 | 86 | 190 | 3.0 | 8.0 | 0.00 | 0.00 | 0.00 | 68 | 1020.0 |
| 20260831161003 | 86 | 163 | 2.0 | 7.0 | 0.00 | 0.00 | 0.00 | 65 | 1020.0 |
| 20260831160504 | 85 | 103 | 2.0 | 7.0 | 0.00 | 0.00 | 0.00 | 65 | 1020.1 |
| 20260831160015 | 85 | 177 | 1.0 | 8.0 | 0.00 | 0.00 | 0.00 | 66 | 1020.1 |
| 20260831155506 | 85 | 48 | 2.0 | 8.0 | 0.00 | 0.00 | 0.00 | 66 | 1020.1 |
| 20260831155006 | 85 | 262 | 2.0 | 9.0 | 0.00 | 0.00 | 0.00 | 69 | 1020.1 |
| 20260831154544 | 84 | 223 | 2.0 | 9.0 | 0.00 | 0.00 | 0.00 | 70 | 1020.0 |
| 20260831154011 | 84 | 296 | 3.0 | 9.0 | 0.00 | 0.00 | 0.00 | 67 | 1020.0 |
| 20260831153509 | 84 | 281 | 2.0 | 4.0 | 0.00 | 0.00 | 0.00 | 70 | 1020.1 |
| 20260831153022 | 84 | 268 | 2.0 | 6.0 | 0.00 | 0.00 | 0.00 | 73 | 1020.0 |
| 20260831152510 | 83 | 298 | 1.0 | 6.0 | 0.00 | 0.00 | 0.00 | 72 | 1019.9 |
| 20260831152015 | 83 | 195 | 1.0 | 8.0 | 0.00 | 0.00 | 0.00 | 77 | 1019.9 |
| 20260831151531 | 82 | 309 | 1.0 | 8.0 | 0.00 | 0.00 | 0.00 | 76 | 1020.0 |
| 20260831151017 | 82 | 261 | 2.0 | 6.0 | 0.00 | 0.00 | 0.00 | 74 | 1019.9 |
| 20260831150514 | 81 | 289 | 2.0 | 6.0 | 0.00 | 0.00 | 0.00 | 74 | 1019.8 |
| 20260831150009 | 81 | 183 | 3.0 | 6.0 | 0.00 | 0.00 | 0.00 | 74 | 1019.8 |
| 20260831145505 | 80 | 264 | 2.0 | 4.0 | 0.00 | 0.00 | 0.00 | 78 | 1019.8 |
| 20260831145005 | 80 | 180 | 1.0 | 4.0 | 0.00 | 0.00 | 0.00 | 77 | 1019.7 |
| 20260831144517 | 80 | 217 | 2.0 | 5.0 | 0.00 | 0.00 | 0.00 | 78 | 1019.7 |
| 20260831144010 | 79 | 315 | 2.0 | 5.0 | 0.00 | 0.00 | 0.00 | 80 | 1019.6 |
| 20260831143509 | 79 | 237 | 1.0 | 4.0 | 0.00 | 0.00 | 0.00 | 80 | 1019.6 |
| 20260831143025 | 78 | 174 | 0.0 | 3.0 | 0.00 | 0.00 | 0.00 | 81 | 1019.6 |
| 20260831142513 | 78 | 193 | 1.0 | 3.0 | 0.00 | 0.00 | 0.00 | 82 | 1019.5 |
| 20260831142013 | 77 | 227 | 1.0 | 3.0 | 0.00 | 0.00 | 0.00 | 83 | 1019.5 |
| 20260831141528 | 76 | 186 | 1.0 | 3.0 | 0.00 | 0.00 | 0.00 | 84 | 1019.5 |
| 20260831141011 | 76 | 310 | 1.0 | 3.0 | 0.00 | 0.00 | 0.00 | 84 | 1019.4 |
| 20260831140516 | 76 | 187 | 0.0 | 2.0 | 0.00 | 0.00 | 0.00 | 86 | 1019.3 |
| 20260831140029 | 75 | 187 | 0.0 | 2.0 | 0.00 | 0.00 | 0.00 | 86 | 1019.3 |
| 20260831135514 | 75 | 216 | 1.0 | 2.0 | 0.00 | 0.00 | 0.00 | 86 | 1019.2 |
| 20260831135016 | 75 | 172 | 0.0 | 2.0 | 0.00 | 0.00 | 0.00 | 87 | 1019.3 |
| 20260831134513 | 74 | 171 | 0.0 | 2.0 | 0.00 | 0.00 | 0.00 | 87 | 1019.3 |
| 20260831134010 | 74 | 150 | 1.0 | 2.0 | 0.00 | 0.00 | 0.00 | 87 | 1019.4 |
| 20260831133507 | 74 | 118 | 0.0 | 2.0 | 0.00 | 0.00 | 0.00 | 88 | 1019.6 |
| 20260831133028 | 74 | 118 | 0.0 | 2.0 | 0.00 | 0.00 | 0.00 | 88 | 1019.6 |
| 20260831132510 | 74 | 125 | 1.0 | 2.0 | 0.00 | 0.00 | 0.00 | 89 | 1019.5 |
| 20260831132013 | 73 | 155 | 0.0 | 2.0 | 0.00 | 0.00 | 0.00 | 89 | 1019.5 |
| 20260831131527 | 73 | 155 | 0.0 | 2.0 | 0.00 | 0.00 | 0.00 | 88 | 1019.5 |
| 20260831131017 | 73 | 155 | 0.0 | 2.0 | 0.00 | 0.00 | 0.00 | 88 | 1019.5 |
| 20260831130512 | 73 | 155 | 0.0 | 2.0 | 0.00 | 0.00 | 0.00 | 88 | 1019.6 |
| 20260831130036 | 73 | 191 | 0.0 | 2.0 | 0.00 | 0.00 | 0.00 | 89 | 1019.6 |
| 20260831125515 | 72 | 147 | 0.0 | 2.0 | 0.00 | 0.00 | 0.00 | 91 | 1019.6 |
| 20260831125018 | 72 | 147 | 0.0 | 2.0 | 0.00 | 0.00 | 0.00 | 91 | 1019.5 |
| 20260831124531 | 72 | 132 | 0.0 | 2.0 | 0.00 | 0.00 | 0.00 | 91 | 1019.5 |
| 20260831124014 | 71 | 132 | 0.0 | 2.0 | 0.00 | 0.00 | 0.00 | 92 | 1019.5 |
| 20260831123508 | 71 | 132 | 0.0 | 2.0 | 0.00 | 0.00 | 0.00 | 92 | 1019.5 |
| 20260831123025 | 71 | 132 | 0.0 | 2.0 | 0.00 | 0.00 | 0.00 | 93 | 1019.6 |
| 20260831122508 | 71 | 132 | 0.0 | 2.0 | 0.00 | 0.00 | 0.00 | 93 | 1019.5 |
| 20260831122011 | 70 | 132 | 0.0 | 2.0 | 0.00 | 0.00 | 0.00 | 94 | 1019.5 |
| 20260831121532 | 70 | 132 | 0.0 | 2.0 | 0.00 | 0.00 | 0.00 | 95 | 1019.4 |
| 20260831121012 | 70 | 133 | 0.0 | 0.0 | 0.00 | 0.00 | 0.00 | 94 | 1019.4 |
| 20260831120514 | 70 | 133 | 0.0 | 0.0 | 0.00 | 0.00 | 0.00 | 94 | 1019.4 |
| 20260831120032 | 70 | 133 | 0.0 | 0.0 | 0.00 | 0.00 | 0.00 | 94 | 1019.3 |
| 20260831115516 | 70 | 133 | 0.0 | 0.0 | 0.00 | 0.00 | 0.00 | 93 | 1019.2 |
| 20260831115017 | 70 | 133 | 0.0 | 0.0 | 0.00 | 0.00 | 0.00 | 93 | 1019.1 |
| 20260831114534 | 70 | 133 | 0.0 | 2.0 | 0.00 | 0.00 | 0.00 | 93 | 1019.1 |
| 20260831114017 | 70 | 133 | 0.0 | 2.0 | 0.00 | 0.00 | 0.00 | 93 | 1019.1 |
| 20260831113518 | 70 | 133 | 0.0 | 2.0 | 0.00 | 0.00 | 0.00 | 93 | 1019.1 |
| 20260831113035 | 70 | 133 | 0.0 | 2.0 | 0.00 | 0.00 | 0.00 | 93 | 1019.1 |
| 20260831112508 | 70 | 133 | 0.0 | 2.0 | 0.00 | 0.00 | 0.00 | 93 | 1018.9 |
| 20260831112010 | 70 | 133 | 0.0 | 2.0 | 0.00 | 0.00 | 0.00 | 93 | 1018.8 |
| 20260831111523 | 69 | 223 | 1.0 | 1.0 | 0.00 | 0.00 | 0.00 | 93 | 1018.7 |
| 20260831111010 | 69 | 223 | 0.0 | 2.0 | 0.00 | 0.00 | 0.00 | 93 | 1018.8 |
| 20260831110512 | 69 | 223 | 0.0 | 2.0 | 0.00 | 0.00 | 0.00 | 93 | 1018.8 |
| 20260831110028 | 69 | 199 | 0.0 | 2.0 | 0.00 | 0.00 | 0.00 | 93 | 1018.7 |
| 20260831105516 | 69 | 199 | 1.0 | 2.0 | 0.00 | 0.00 | 0.00 | 94 | 1018.6 |
| 20260831105016 | 69 | 184 | 1.0 | 2.0 | 0.00 | 0.00 | 0.00 | 94 | 1018.5 |
| 20260831104540 | 69 | 227 | 0.0 | 2.0 | 0.00 | 0.00 | 0.00 | 94 | 1018.5 |
| 20260831104005 | 69 | 227 | 0.0 | 2.0 | 0.00 | 0.00 | 0.00 | 95 | 1018.5 |
| 20260831103504 | 69 | 226 | 0.0 | 2.0 | 0.00 | 0.00 | 0.00 | 95 | 1018.6 |
| 20260831103008 | 68 | 227 | 0.0 | 2.0 | 0.00 | 0.00 | 0.00 | 95 | 1018.6 |
| 20260831102505 | 68 | 249 | 0.0 | 2.0 | 0.00 | 0.00 | 0.00 | 95 | 1018.6 |
| 20260831102006 | 68 | 249 | 0.0 | 2.0 | 0.00 | 0.00 | 0.00 | 95 | 1018.6 |
| 20260831101509 | 68 | 249 | 0.0 | 2.0 | 0.00 | 0.00 | 0.00 | 95 | 1018.6 |
| 20260831101004 | 68 | 249 | 0.0 | 2.0 | 0.00 | 0.00 | 0.00 | 96 | 1018.6 |
| 20260831100503 | 68 | 249 | 0.0 | 2.0 | 0.00 | 0.00 | 0.00 | 96 | 1018.6 |
| 20260831100009 | 68 | 249 | 0.0 | 0.0 | 0.00 | 0.00 | 0.00 | 96 | 1018.5 |
| 20260831095504 | 68 | 249 | 0.0 | 1.0 | 0.00 | 0.00 | 0.00 | 96 | 1018.5 |
| 20260831095004 | 68 | 249 | 0.0 | 2.0 | 0.00 | 0.00 | 0.00 | 96 | 1018.5 |
| 20260831094504 | 68 | 249 | 0.0 | 2.0 | 0.00 | 0.00 | 0.00 | 96 | 1018.6 |
| 20260831094008 | 68 | 249 | 0.0 | 0.0 | 0.00 | 0.00 | 0.00 | 96 | 1018.6 |
| 20260831093505 | 68 | 249 | 0.0 | 0.0 | 0.00 | 0.00 | 0.00 | 96 | 1018.5 |
| 20260831093012 | 68 | 249 | 0.0 | 0.0 | 0.00 | 0.00 | 0.00 | 96 | 1018.5 |
| 20260831092506 | 68 | 249 | 0.0 | 0.0 | 0.00 | 0.00 | 0.00 | 96 | 1018.6 |
| 20260831092004 | 68 | 249 | 0.0 | 0.0 | 0.00 | 0.00 | 0.00 | 96 | 1018.7 |
| 20260831091509 | 68 | 249 | 0.0 | 0.0 | 0.00 | 0.00 | 0.00 | 96 | 1018.7 |
| 20260831091006 | 68 | 249 | 0.0 | 0.0 | 0.00 | 0.00 | 0.00 | 96 | 1018.8 |
| 20260831090506 | 68 | 249 | 0.0 | 0.0 | 0.00 | 0.00 | 0.00 | 96 | 1018.8 |
| 20260831090010 | 68 | 249 | 0.0 | 0.0 | 0.00 | 0.00 | 0.00 | 96 | 1018.9 |
| 20260831085505 | 68 | 249 | 0.0 | 0.0 | 0.00 | 0.00 | 0.00 | 96 | 1018.8 |
| 20260831085006 | 68 | 249 | 0.0 | 0.0 | 0.00 | 0.00 | 0.00 | 96 | 1018.7 |
| 20260831084505 | 68 | 249 | 0.0 | 0.0 | 0.00 | 0.00 | 0.00 | 96 | 1018.7 |
| 20260831084003 | 68 | 249 | 0.0 | 0.0 | 0.00 | 0.00 | 0.00 | 96 | 1018.7 |
| 20260831083503 | 68 | 249 | 0.0 | 0.0 | 0.00 | 0.00 | 0.00 | 96 | 1018.9 |
| 20260831083019 | 68 | 249 | 0.0 | 0.0 | 0.00 | 0.00 | 0.00 | 96 | 1018.8 |
| 20260831082504 | 68 | 249 | 0.0 | 0.0 | 0.00 | 0.00 | 0.00 | 96 | 1018.6 |
| 20260831082004 | 68 | 249 | 0.0 | 0.0 | 0.00 | 0.00 | 0.00 | 96 | 1018.6 |
| 20260831081509 | 68 | 249 | 0.0 | 0.0 | 0.00 | 0.00 | 0.00 | 96 | 1018.5 |
| 20260831081006 | 68 | 249 | 0.0 | 0.0 | 0.00 | 0.00 | 0.00 | 96 | 1018.5 |
| 20260831080503 | 68 | 249 | 0.0 | 0.0 | 0.00 | 0.00 | 0.00 | 96 | 1018.5 |
| 20260831080024 | 68 | 249 | 0.0 | 0.0 | 0.00 | 0.00 | 0.00 | 96 | 1018.5 |
| 20260831075505 | 68 | 249 | 0.0 | 0.0 | 0.00 | 0.00 | 0.00 | 96 | 1018.4 |
| 20260831075005 | 68 | 249 | 0.0 | 0.0 | 0.00 | 0.00 | 0.00 | 96 | 1018.4 |
| 20260831074516 | 68 | 249 | 0.0 | 0.0 | 0.00 | 0.00 | 0.00 | 96 | 1018.6 |
| 20260831074008 | 68 | 249 | 0.0 | 0.0 | 0.00 | 0.00 | 0.00 | 96 | 1018.5 |
| 20260831073504 | 68 | 249 | 0.0 | 0.0 | 0.00 | 0.00 | 0.00 | 96 | 1018.5 |
| 20260831073014 | 68 | 249 | 0.0 | 0.0 | 0.00 | 0.00 | 0.00 | 96 | 1018.7 |
| 20260831072505 | 68 | 249 | 0.0 | 0.0 | 0.00 | 0.00 | 0.00 | 96 | 1018.7 |
| 20260831072004 | 68 | 249 | 0.0 | 0.0 | 0.00 | 0.00 | 0.00 | 96 | 1018.7 |
| 20260831071514 | 68 | 249 | 0.0 | 0.0 | 0.00 | 0.00 | 0.00 | 96 | 1018.7 |
| 20260831071007 | 68 | 249 | 0.0 | 1.0 | 0.00 | 0.00 | 0.00 | 96 | 1018.8 |
| 20260831070508 | 68 | 249 | 0.0 | 1.0 | 0.00 | 0.00 | 0.00 | 96 | 1018.8 |
| 20260831070013 | 68 | 249 | 0.0 | 1.0 | 0.00 | 0.00 | 0.00 | 97 | 1018.9 |
| 20260831065507 | 67 | 249 | 0.0 | 0.0 | 0.00 | 0.00 | 0.00 | 96 | 1018.7 |
| 20260831065008 | 67 | 249 | 0.0 | 0.0 | 0.00 | 0.00 | 0.00 | 97 | 1018.8 |
| 20260831064514 | 67 | 249 | 0.0 | 0.0 | 0.00 | 0.00 | 0.00 | 96 | 1018.8 |
| 20260831064007 | 67 | 249 | 0.0 | 0.0 | 0.00 | 0.00 | 0.00 | 96 | 1018.9 |
| 20260831063506 | 67 | 249 | 0.0 | 0.0 | 0.00 | 0.00 | 0.00 | 96 | 1018.9 |
| 20260831063014 | 67 | 249 | 0.0 | 0.0 | 0.00 | 0.00 | 0.00 | 96 | 1019.2 |
| 20260831062506 | 67 | 249 | 0.0 | 0.0 | 0.00 | 0.00 | 0.00 | 96 | 1019.2 |
| 20260831062005 | 67 | 249 | 0.0 | 0.0 | 0.00 | 0.00 | 0.00 | 96 | 1019.2 |
| 20260831061512 | 67 | 249 | 0.0 | 0.0 | 0.00 | 0.00 | 0.00 | 96 | 1019.4 |
| 20260831061006 | 67 | 249 | 0.0 | 0.0 | 0.00 | 0.00 | 0.00 | 96 | 1019.4 |
| 20260831060507 | 67 | 249 | 0.0 | 0.0 | 0.00 | 0.00 | 0.00 | 96 | 1019.3 |
| 20260831060018 | 67 | 249 | 0.0 | 0.0 | 0.00 | 0.00 | 0.00 | 96 | 1019.3 |
| 20260831055506 | 67 | 249 | 0.0 | 0.0 | 0.00 | 0.00 | 0.00 | 96 | 1019.2 |
| 20260831055006 | 67 | 249 | 0.0 | 0.0 | 0.00 | 0.00 | 0.00 | 96 | 1019.4 |
| 20260831054519 | 67 | 249 | 0.0 | 0.0 | 0.00 | 0.00 | 0.00 | 96 | 1019.3 |
| 20260831054012 | 67 | 249 | 0.0 | 0.0 | 0.00 | 0.00 | 0.00 | 95 | 1019.3 |
| 20260831053511 | 67 | 249 | 0.0 | 0.0 | 0.00 | 0.00 | 0.00 | 95 | 1019.4 |
| 20260831053015 | 67 | 249 | 0.0 | 0.0 | 0.00 | 0.00 | 0.00 | 96 | 1019.4 |
| 20260831052506 | 67 | 249 | 0.0 | 0.0 | 0.00 | 0.00 | 0.00 | 96 | 1019.6 |
| 20260831052009 | 67 | 249 | 0.0 | 0.0 | 0.00 | 0.00 | 0.00 | 96 | 1019.5 |
| 20260831051516 | 67 | 249 | 0.0 | 0.0 | 0.00 | 0.00 | 0.00 | 95 | 1019.5 |
| 20260831051013 | 67 | 249 | 0.0 | 2.0 | 0.00 | 0.00 | 0.00 | 95 | 1019.5 |
| 20260831050506 | 67 | 249 | 0.0 | 2.0 | 0.00 | 0.00 | 0.00 | 95 | 1019.5 |
| 20260831050014 | 67 | 249 | 0.0 | 2.0 | 0.00 | 0.00 | 0.00 | 96 | 1019.5 |
| 20260831045508 | 67 | 249 | 0.0 | 0.0 | 0.00 | 0.00 | 0.00 | 95 | 1019.4 |
| 20260831045008 | 67 | 249 | 0.0 | 0.0 | 0.00 | 0.00 | 0.00 | 95 | 1019.3 |
| 20260831044521 | 67 | 249 | 0.0 | 0.0 | 0.00 | 0.00 | 0.00 | 95 | 1019.3 |